Location: Aalen
(48.8330°N, 10.1000°E)
Time: 17:34:20
(UTC+02:00)

Transit 4A - Pass Details

Date: 02 August 2021
Orbit: 871 x 974 km, 66.8° (Epoch: 16 September)

Event Time Altitude Azimuth Distance (km) Brightness Sun altitude
Rises 09:38:13 0° 323° (NW) 3,475 10.5 34.8°
Reaches altitude 10° 09:40:42 10° 322° (NW) 2,540 9.9 35.2°
Maximum altitude 09:46:33 76° 238° (WSW) 920 8.4 36.1°
Drops below altitude 10° 09:52:30 10° 154° (SSE) 2,578 10.9 37.1°
Sets 09:55:02 0° 153° (SSE) 3,531 11.5 37.5°
